Weather observations for the past three days for
New Stuyahok
Metric (Imperial)
Date Time (akdt) Wind (kph) Vis. (km) Weather Sky Cond. Temperature (ºC) Relative Humidity Wind Chill (°C) Heat Index (°C) Pressure Precipitation (cm)
Air Dwpt 6 hour altimeter (cm) sea level (mb) 1 hr 3 hr 6 hr
Max. Min.
24 17:56 S 15 16.09 A Few Clouds FEW028 17.8 10.6 63% 76.15 1015.4
24 16:56 S 11 16.09 A Few Clouds FEW023 16.7 10.6 67% 76.17 1015.8
24 15:56 Vrbl 6 16.09 A Few Clouds FEW018 15.6 10.6 15.6 8.9 72% 76.2 1016.2
24 14:56 SW 13 16.09 Mostly Cloudy BKN011 13.3 10 81% 76.23 1016.6
24 13:56 S 15 16.09 Overcast OVC007 11.1 10 93% 76.25 1016.9
24 12:56 S 17 16.09 Overcast OVC003 10 10 100% 8 76.25 1016.9
24 11:56 S 13 4.83 Fog/Mist OVC001 9.4 9.4 100% 8 76.2 1016.5
24 10:56 S 13 0.80 Fog OVC001 8.9 8.9 100% 7 76.2 1016.4
24 09:56 S 17 0.40 Fog OVC001 8.3 8.3 10 8.3 100% 6 76.17 1016.0
24 08:56 S 15 0.24 Fog OVC001 8.3 8.3 100% 6 76.15 1015.6
24 07:56 S 15 0.24 Fog OVC001 8.3 8.3 100% 6 76.12 1015.1
24 06:56 S 13 0.24 Fog OVC001 8.3 8.3 100% 6 76.07 1014.8
24 05:56 S 11 0.24 Fog OVC001 9.4 9.4 100% 8 76.05 1014.3
24 04:56 S 9 0.24 Fog OVC001 10 10 100% 9 76.02 1014.0
24 03:56 S 7 0.80 Fog CLR 10 10 15.6 10 100% 9 76 1013.5
24 02:56 SW 9 16.09 Fair CLR 11.7 11.7 100% 75.97 1013.1
24 01:56 SW 11 16.09 Overcast SCT060 OVC075 12.2 11.7 97% 75.95 1012.9
24 00:56 SW 7 16.09 Mostly Cloudy BKN036 12.2 11.7 97% 75.95 1012.7
23 23:56 SW 11 16.09 Overcast BKN038 OVC045 12.8 12.2 96% 75.9 1012.3
23 22:56 SW 11 16.09 Mostly Cloudy FEW040 BKN048 13.3 12.2 93% 75.87 1012.0
23 21:56 W 7 16.09 Partly Cloudy SCT040 15.6 12.2 17.2 14.4 80% 75.84 1011.7
23 20:56 Vrbl 7 16.09 Mostly Cloudy SCT029 BKN080 17.2 12.2 73% 75.87 1011.8
23 19:56 W 11 16.09 Fair CLR 16.7 11.7 73% 75.79 1010.9
23 18:56 NW 17 16.09 Mostly Cloudy SCT050 BKN060 15 12.2 83% 75.82 1011.3
23 17:56 W 20 16.09 Overcast OVC085 14.4 12.2 87% 75.79 1011.0
23 16:56 W 17 16.09 Overcast OVC080 15.6 13.3 86% 75.82 1011.2
23 15:56 W 11 16.09 Overcast BKN070 OVC085 15.6 12.8 18.9 15 84% 75.82 1011.1
23 14:56 N 15 16.09 Light Rain SCT018 OVC070 17.2 12.8 76% 75.79 1010.9
23 13:56 NE 6 16.09 Light Rain SCT030 BKN050 OVC060 16.7 12.8 78% 75.79 1010.9
23 12:56 NE 9 16.09 Overcast SCT030 BKN042 OVC050 17.8 11.1 65% 75.79 1011.0
23 11:56 NE 17 6.44 Mostly Cloudy with Haze BKN028 BKN055 18.9 11.7 63% 75.82 1011.0
23 10:56 NE 13 16.09 Mostly Cloudy BKN026 BKN041 17.2 11.1 68% 75.82 1011.0
23 09:56 N 15 16.09 Overcast OVC085 17.2 10.6 17.2 11.1 65% 75.82 1010.9
23 08:56 N 15 16.09 Mostly Cloudy BKN090 15 10 72% 75.82 1011.2
23 07:56 N 15 16.09 Fair CLR 13.9 10 78% 75.82 1011.3
23 06:56 NW 9 14.48 Fair CLR 11.7 8.9 83% 75.84 1011.6
23 05:56 N 11 16.09 Fair CLR 11.1 8.3 83% 75.84 1011.6
23 04:56 N 13 16.09 Fair CLR 11.1 7.8 80% 75.84 1011.5
23 03:56 N 13 16.09 Mostly Cloudy BKN070 13.3 8.3 20 12.8 72% 75.87 1011.7
23 02:56 N 20 16.09 Fair CLR 13.3 8.3 72% 75.87 1011.8
23 01:56 N 20 16.09 Fair CLR 13.9 8.9 72% 75.87 1011.9
23 00:56 N 17 16.09 A Few Clouds FEW070 15.6 8.3 62% 75.87 1011.9
22 23:56 N 11 14.48 Mostly Cloudy BKN080 16.7 8.9 60% 75.87 1011.8
22 22:56 N 17 9.66 Partly Cloudy with Haze FEW060 SCT075 18.3 8.9 54% 75.84 1011.5
22 21:56 N 13 16.09 Mostly Cloudy FEW075 BKN090 20 9.4 23.3 18.9 51% 75.84 1011.5
22 20:56 N 9 9.66 Mostly Cloudy with Haze BKN095 20.6 8.9 47% 75.87 1011.7
22 19:56 N 15 12.87 Overcast FEW050 BKN090 OVC120 18.9 10 56% 75.87 1011.9
22 18:56 NW 22 G 28 16.09 Partly Cloudy FEW080 SCT110 21.7 9.4 46% 75.87 1012.0
22 17:56 N 20 16.09 Mostly Cloudy FEW060 BKN080 21.7 8.3 42% 75.87 1011.8
22 16:56 N 19 16.09 Partly Cloudy SCT060 22.8 8.3 40% 75.9 1012.3
22 15:56 NW 17 16.09 Partly Cloudy SCT050 22.2 8.3 22.2 17.8 41% 75.95 1012.8
22 14:56 Vrbl 11 16.09 Fair CLR 20.6 10.6 53% 75.97 1013.3
22 13:56 NW 13 16.09 Fair CLR 19.4 10.6 57% 76 1013.7
22 12:56 NW 20 16.09 Fair CLR 18.3 10.6 61% 76.02 1013.8
22 11:56 N 13 16.09 Fair CLR 18.9 10 56% 76.02 1013.9
22 10:56 NW 22 16.09 Fair CLR 18.3 9.4 56% 76.02 1013.8
22 09:56 NW 17 16.09 Fair CLR 17.8 9.4 18.9 11.1 58% 76.02 1013.8
22 08:56 NW 17 16.09 Fair CLR 17.8 9.4 58% 76.02 1013.6
22 07:56 NW 9 16.09 Fair CLR 14.4 8.9 70% 76.02 1013.6
22 06:56 NW 15 16.09 Fair CLR 11.7 7.8 77% 76.02 1013.8
22 05:56 NW 13 16.09 Fair CLR 11.1 7.2 77% 76 1013.6
22 04:56 NW 15 16.09 Fair CLR 11.1 7.2 77% 76.02 1013.7
22 03:56 NW 15 16.09 Fair CLR 11.7 7.8 17.2 11.7 77% 76.02 1013.9
22 02:56 NW 15 16.09 Fair CLR 12.2 7.8 75% 76.02 1013.7
22 01:56 NW 15 16.09 Fair CLR 12.8 7.8 72% 76 1013.6
22 00:56 NW 13 16.09 Fair CLR 13.3 7.8 70% 76.02 1013.7
21 23:56 NW 13 16.09 Fair CLR 14.4 7.8 65% 76 1013.6
21 22:56 NW 13 16.09 Fair CLR 16.1 7.2 56% 76 1013.4
21 21:56 W 17 16.09 Partly Cloudy SCT070 17.2 6.7 20.6 17.2 50% 75.97 1013.0
21 20:56 NW 11 16.09 Partly Cloudy FEW065 SCT095 20 6.7 42% 75.95 1012.7
21 19:56 W 9 16.09 Mostly Cloudy BKN080 20 6.7 42% 75.95 1012.8
21 18:56 W 11 16.09 Overcast OVC065 20 7.8 45% 75.95 1012.9
Date Time (akdt) Wind (kph) Vis. (km) Weather Sky Cond. Air Dwpt Max. Min. Relative Humidity Wind Chill (°C) Heat Index (°C) altimeter (cm) sea level (mb) 1 hr 3 hr 6 hr
6 hour
Temperature (ºC) Pressure Precipitation (cm)